| time (UTC) | temp F | wind direction | speed MPH | gust MPH | rain 1hr in | rain 24hr in | rain mn in | humidity % | barometer mb |
| 20260506184423 | 53 | 58 | 1.0 | 7.0 | 0.00 | 0.00 | 0.00 | 68 | 1011.7 |
| 20260506182934 | 54 | 107 | 4.0 | 8.0 | 0.00 | 0.00 | 0.00 | 65 | 1011.7 |
| 20260506181426 | 55 | 60 | 3.0 | 7.0 | 0.00 | 0.00 | 0.00 | 62 | 1011.6 |
| 20260506175956 | 57 | 142 | 0.0 | 2.0 | 0.00 | 0.00 | 0.00 | 59 | 1011.6 |
| 20260506174427 | 57 | 143 | 0.0 | 1.0 | 0.00 | 0.00 | 0.00 | 60 | 1011.7 |
| 20260506172918 | 58 | 139 | 0.0 | 0.0 | 0.00 | 0.00 | 0.00 | 58 | 1011.7 |
| 20260506171447 | 58 | 138 | 0.0 | 1.0 | 0.00 | 0.00 | 0.00 | 55 | 1011.7 |
| 20260506165956 | 59 | 141 | 0.0 | 0.0 | 0.00 | 0.00 | 0.00 | 54 | 1011.7 |
| 20260506164426 | 59 | 122 | 0.0 | 0.0 | 0.00 | 0.00 | 0.00 | 53 | 1011.7 |
| 20260506162917 | 58 | 143 | 0.0 | 2.0 | 0.00 | 0.00 | 0.00 | 51 | 1011.7 |
| 20260506161428 | 59 | 199 | 0.0 | 1.0 | 0.00 | 0.00 | 0.00 | 51 | 1011.7 |
| 20260506155920 | 59 | 198 | 0.0 | 1.0 | 0.00 | 0.00 | 0.00 | 48 | 1011.8 |
| 20260506154431 | 59 | 211 | 2.0 | 7.0 | 0.00 | 0.00 | 0.00 | 47 | 1011.8 |
| 20260506152921 | 59 | 231 | 0.0 | 2.0 | 0.00 | 0.00 | 0.00 | 47 | 1011.9 |
| 20260506151432 | 60 | 222 | 1.0 | 6.0 | 0.00 | 0.00 | 0.00 | 45 | 1012.1 |
| 20260506145925 | 60 | 248 | 1.0 | 4.0 | 0.00 | 0.00 | 0.00 | 47 | 1012.2 |
| 20260506144416 | 58 | 240 | 0.0 | 3.0 | 0.00 | 0.00 | 0.00 | 48 | 1012.2 |
| 20260506142927 | 58 | 238 | 1.0 | 6.0 | 0.00 | 0.00 | 0.00 | 49 | 1012.4 |
| 20260506141417 | 61 | 211 | 2.0 | 4.0 | 0.00 | 0.00 | 0.00 | 45 | 1012.5 |
| 20260506135929 | 61 | 221 | 3.0 | 7.0 | 0.00 | 0.08 | 0.00 | 43 | 1012.5 |
| 20260506134421 | 62 | 208 | 1.0 | 5.0 | 0.00 | 0.08 | 0.00 | 46 | 1012.8 |
| 20260506132951 | 62 | 187 | 3.0 | 6.0 | 0.00 | 0.08 | 0.00 | 42 | 1012.8 |
| 20260506131420 | 62 | 134 | 0.0 | 5.0 | 0.00 | 0.08 | 0.00 | 48 | 1012.9 |
| 20260506125932 | 61 | 333 | 0.0 | 3.0 | 0.00 | 0.08 | 0.00 | 39 | 1012.9 |
| 20260506124422 | 61 | 110 | 0.0 | 2.0 | 0.00 | 0.08 | 0.00 | 45 | 1013.2 |
| 20260506122933 | 60 | 34 | 1.0 | 2.0 | 0.00 | 0.08 | 0.00 | 46 | 1013.3 |
| 20260506121425 | 59 | 229 | 1.0 | 6.0 | 0.00 | 0.08 | 0.00 | 52 | 1013.4 |
| 20260506115916 | 58 | 46 | 0.0 | 2.0 | 0.00 | 0.08 | 0.00 | 50 | 1013.6 |
| 20260506114429 | 56 | 276 | 0.0 | 2.0 | 0.00 | 0.08 | 0.00 | 53 | 1013.7 |
| 20260506112925 | 55 | 18 | 0.0 | 4.0 | 0.00 | 0.08 | 0.00 | 54 | 1013.8 |
| 20260506111417 | 55 | 122 | 1.0 | 3.0 | 0.00 | 0.08 | 0.00 | 54 | 1013.9 |
| 20260506105928 | 55 | 58 | 1.0 | 2.0 | 0.00 | 0.08 | 0.00 | 54 | 1014.0 |
| 20260506104421 | 54 | 135 | 1.0 | 5.0 | 0.00 | 0.08 | 0.00 | 57 | 1014.0 |
| 20260506102933 | 54 | 148 | 1.0 | 6.0 | 0.00 | 0.08 | 0.00 | 56 | 1014.1 |
| 20260506101425 | 53 | 163 | 1.0 | 4.0 | 0.00 | 0.08 | 0.00 | 59 | 1014.1 |
| 20260506095916 | 54 | 30 | 1.0 | 5.0 | 0.00 | 0.16 | 0.00 | 60 | 1014.2 |
| 20260506094429 | 53 | 56 | 1.0 | 6.0 | 0.00 | 0.16 | 0.00 | 60 | 1014.1 |
| 20260506092919 | 52 | 47 | 1.0 | 7.0 | 0.00 | 0.16 | 0.00 | 62 | 1014.2 |
| 20260506091451 | 52 | 56 | 1.0 | 6.0 | 0.00 | 0.16 | 0.00 | 64 | 1014.2 |
| 20260506085942 | 50 | 43 | 1.0 | 5.0 | 0.00 | 0.16 | 0.00 | 64 | 1014.1 |
| 20260506084433 | 49 | 84 | 0.0 | 6.0 | 0.00 | 0.16 | 0.00 | 67 | 1014.1 |
| 20260506082925 | 48 | 52 | 0.0 | 3.0 | 0.00 | 0.16 | 0.00 | 70 | 1014.1 |
| 20260506081417 | 47 | 339 | 0.0 | 1.0 | 0.00 | 0.16 | 0.00 | 76 | 1014.2 |
| 20260506072933 | 42 | 245 | 0.0 | 0.0 | 0.00 | 0.16 | 0.00 | 90 | 1014.3 |
| 20260506071422 | 40 | 245 | 0.0 | 1.0 | 0.00 | 0.16 | 0.00 | 90 | 1014.3 |
| 20260506061430 | 38 | 245 | 0.0 | 0.0 | 0.00 | 0.16 | 0.00 | 94 | 1014.1 |
| 20260506044424 | 35 | 245 | 0.0 | 0.0 | 0.00 | 0.16 | 0.00 | 94 | 1014.2 |
| 20260506042936 | 35 | 244 | 0.0 | 0.0 | 0.00 | 0.16 | 0.00 | 94 | 1014.2 |
| 20260506041428 | 34 | 243 | 0.0 | 1.0 | 0.00 | 0.16 | 0.00 | 93 | 1014.1 |
| 20260506035937 | 35 | 245 | 0.0 | 0.0 | 0.00 | 0.16 | 0.00 | 93 | 1014.3 |
| 20260506034427 | 35 | 245 | 0.0 | 1.0 | 0.00 | 0.16 | 0.00 | 93 | 1014.4 |
| 20260506032918 | 35 | 244 | 0.0 | 0.0 | 0.00 | 0.16 | 0.00 | 94 | 1014.3 |
| 20260506031429 | 35 | 244 | 0.0 | 0.0 | 0.00 | 0.16 | 0.00 | 94 | 1014.4 |
| 20260506025919 | 34 | 244 | 0.0 | 0.0 | 0.00 | 0.16 | 0.00 | 94 | 1014.4 |
| 20260506024430 | 34 | 245 | 0.0 | 0.0 | 0.00 | 0.16 | 0.00 | 94 | 1014.4 |
| 20260506022922 | 33 | 245 | 0.0 | 1.0 | 0.00 | 0.16 | 0.00 | 93 | 1014.3 |
| 20260506021431 | 33 | 245 | 0.0 | 0.0 | 0.00 | 0.16 | 0.00 | 93 | 1014.3 |
| 20260506015918 | 33 | 244 | 0.0 | 1.0 | 0.00 | 0.16 | 0.00 | 93 | 1014.3 |
| 20260506014440 | 34 | 245 | 0.0 | 0.0 | 0.00 | 0.16 | 0.00 | 92 | 1014.4 |
| 20260506012927 | 34 | 244 | 0.0 | 0.0 | 0.00 | 0.16 | 0.00 | 93 | 1014.4 |
| 20260506011422 | 34 | 245 | 0.0 | 0.0 | 0.00 | 0.16 | 0.00 | 92 | 1014.5 |
| 20260506005948 | 34 | 245 | 0.0 | 1.0 | 0.00 | 0.16 | 0.00 | 91 | 1014.6 |
| 20260506004419 | 35 | 245 | 0.0 | 0.0 | 0.00 | 0.16 | 0.00 | 92 | 1014.7 |
| 20260506002931 | 35 | 244 | 0.0 | 0.0 | 0.00 | 0.16 | 0.00 | 92 | 1014.8 |
| 20260506001422 | 35 | 245 | 0.0 | 0.0 | 0.00 | 0.16 | 0.00 | 92 | 1014.9 |
| 20260505235932 | 35 | 245 | 0.0 | 1.0 | 0.00 | 0.16 | 0.03 | 91 | 1015.0 |
| 20260505234441 | 36 | 36 | 0.0 | 0.0 | 0.00 | 0.16 | 0.03 | 91 | 1015.0 |
| 20260505232952 | 36 | 36 | 0.0 | 1.0 | 0.00 | 0.16 | 0.03 | 90 | 1015.0 |
| 20260505231423 | 37 | 176 | 0.0 | 1.0 | 0.00 | 0.16 | 0.03 | 89 | 1015.1 |
| 20260505225954 | 39 | 77 | 0.0 | 0.0 | 0.00 | 0.16 | 0.03 | 88 | 1015.1 |
| 20260505224423 | 39 | 78 | 0.0 | 0.0 | 0.00 | 0.16 | 0.03 | 86 | 1015.1 |
| 20260505222935 | 40 | 77 | 0.0 | 0.0 | 0.00 | 0.16 | 0.03 | 85 | 1015.2 |
| 20260505221425 | 42 | 76 | 0.0 | 0.0 | 0.00 | 0.16 | 0.03 | 82 | 1015.2 |
| 20260505215937 | 43 | 76 | 0.0 | 2.0 | 0.00 | 0.16 | 0.03 | 80 | 1015.3 |
| 20260505214428 | 43 | 72 | 0.0 | 3.0 | 0.00 | 0.16 | 0.03 | 80 | 1015.3 |
| 20260505212919 | 42 | 100 | 0.0 | 0.0 | 0.00 | 0.16 | 0.03 | 84 | 1015.3 |
| 20260505211431 | 42 | 238 | 0.0 | 1.0 | 0.00 | 0.16 | 0.03 | 84 | 1015.3 |
| 20260505205923 | 43 | 102 | 0.0 | 0.0 | 0.00 | 0.16 | 0.03 | 82 | 1015.2 |
| 20260505204434 | 44 | 135 | 0.0 | 0.0 | 0.00 | 0.16 | 0.03 | 82 | 1015.1 |
| 20260505202928 | 44 | 37 | 0.0 | 1.0 | 0.00 | 0.16 | 0.03 | 81 | 1014.9 |
| 20260505201418 | 45 | 53 | 0.0 | 1.0 | 0.00 | 0.16 | 0.03 | 79 | 1014.8 |
| 20260505195930 | 45 | 53 | 0.0 | 2.0 | 0.00 | 0.28 | 0.03 | 77 | 1014.5 |
| 20260505194421 | 45 | 36 | 0.0 | 1.0 | 0.00 | 0.28 | 0.03 | 75 | 1014.3 |
| 20260505192933 | 46 | 25 | 1.0 | 5.0 | 0.00 | 0.28 | 0.03 | 73 | 1014.1 |
| 20260505191444 | 46 | 1 | 3.0 | 7.0 | 0.00 | 0.28 | 0.03 | 71 | 1014.0 |
| 20260505185936 | 47 | 33 | 0.0 | 6.0 | 0.00 | 0.43 | 0.03 | 69 | 1014.0 |